Weather reports worldwide

Advertisment
Donna Nook RAF, United Kingdom (3385): temperature & dewpoint: 15.01.2020 05:00:00 - 21.01.2020 05:00:00 (GMT)Donna Nook RAF, United Kingdom (3385): wind speed & gusts: 15.01.2020 05:00:00 - 21.01.2020 05:00:00 (GMT)Donna Nook RAF, United Kingdom (3385): wind direction: 15.01.2020 05:00:00 - 21.01.2020 05:00:00 (GMT)Donna Nook RAF, United Kingdom (3385): reduced air pressure: 15.01.2020 05:00:00 - 21.01.2020 05:00:00 (GMT)Donna Nook RAF, United Kingdom (3385): visibility: 15.01.2020 05:00:00 - 21.01.2020 05:00:00 (GMT)
Date & Time tt [°C] td [°C] ff [km/h] ff [kn] fx [km/h] fx [kn] dd ppp [hPa] vv [km]
21.01.2020 05:00:00 1,0 0,5 11 6 - - SSW 1040,7 6
21.01.2020 04:00:00 1,1 0,4 11 6 - - WSW 1040,9 9
21.01.2020 03:00:00 1,4 0,7 11 6 - - WSW 1041,3 10
21.01.2020 02:00:00 1,0 0,3 13 7 - - WSW 1041,4 7
21.01.2020 01:00:00 0,8 0,1 15 8 - - SSW 1041,9 8
21.01.2020 00:00:00 1,9 1,0 11 6 - - SW 1042,4 10
20.01.2020 23:00:00 1,6 0,7 13 7 - - SSW 1042,6 10
20.01.2020 22:00:00 1,8 0,8 16 9 - - SSW 1042,8 10
20.01.2020 21:00:00 2,1 0,9 13 7 - - SSW 1043,4 11
20.01.2020 20:00:00 3,1 1,8 16 9 - - SW 1043,5 16
20.01.2020 19:00:00 3,4 2,1 21 11 - - SSW 1043,6 17
20.01.2020 18:00:00 3,8 2,1 18 10 - - SSW 1043,6 15
20.01.2020 17:00:00 4,4 2,7 21 11 - - SSW 1043,6 15
20.01.2020 16:00:00 5,7 2,9 15 8 - - SSW 1043,9 10
20.01.2020 15:00:00 7,1 3,3 16 9 - - SW 1043,9 24
20.01.2020 14:00:00 7,4 3,3 18 10 - - SW 1044,3 25
20.01.2020 13:00:00 7,1 3,0 22 12 - - SW 1045,2 21
20.01.2020 12:00:00 7,5 3,5 15 8 - - SW 1045,9 30
20.01.2020 11:00:00 6,1 3,2 11 6 - - WSW 1046,5 27
20.01.2020 10:00:00 3,4 2,1 11 6 - - SW 1046,4 19
20.01.2020 09:00:00 1,4 0,5 16 9 - - SW 1046,6 14
20.01.2020 08:00:00 0,9 -0,2 15 8 - - SSW 1046,5 12
20.01.2020 07:00:00 1,7 0,2 15 8 - - SSW 1046,2 16
20.01.2020 06:00:00 2,3 0,7 18 10 - - SW 1046,1 16
20.01.2020 05:00:00 1,9 0,7 13 7 - - SW 1046,2 14
20.01.2020 04:00:00 1,7 0,5 13 7 - - SW 1046,8 11
20.01.2020 03:00:00 2,2 1,0 13 7 - - SSW 1047,1 11
20.01.2020 02:00:00 1,4 0,1 15 8 - - SSW 1047,2 11
20.01.2020 01:00:00 2,4 0,8 15 8 - - SSW 1047,3 12
20.01.2020 00:00:00 3,1 1,1 11 6 - - SSW 1047,4 10
19.01.2020 23:00:00 3,2 1,2 16 9 - - SSW 1047,1 16
19.01.2020 22:00:00 3,3 1,2 16 9 - - SSW 1046,6 15
19.01.2020 21:00:00 2,8 0,8 13 7 - - S 1047,2 15
19.01.2020 20:00:00 3,6 0,8 13 7 - - WSW 1046,7 10
19.01.2020 19:00:00 2,6 0,0 9 5 - - SW 1046,5 21
19.01.2020 18:00:00 2,7 0,1 11 6 - - SW 1046,8 23
19.01.2020 17:00:00 3,2 -0,1 9 5 - - WSW 1046,7 27
19.01.2020 16:00:00 5,2 0,6 13 7 - - W 1045,8 27
19.01.2020 15:00:00 6,9 1,0 11 6 - - WSW 1045,3 19
19.01.2020 14:00:00 6,8 0,7 9 5 - - WSW 1044,9 27
19.01.2020 13:00:00 6,8 1,5 8 4 - - W 1044,9 27
19.01.2020 12:00:00 5,3 0,6 16 9 - - WNW 1044,9 30
19.01.2020 11:00:00 3,8 0,6 13 7 - - WNW 1044,8 30
19.01.2020 10:00:00 2,0 -0,1 13 7 - - WNW 1044,4 18
19.01.2020 09:00:00 0,6 -1,3 16 9 - - W 1043,2 29
19.01.2020 08:00:00 0,6 -1,3 15 8 - - W 1042,4 21
19.01.2020 07:00:00 0,7 -1,4 18 10 - - W 1041,2 25
19.01.2020 06:00:00 0,7 -1,5 18 10 - - W 1040,2 27
19.01.2020 05:00:00 1,3 -1,2 18 10 - - WNW 1039,4 25
19.01.2020 04:00:00 1,9 -0,8 21 11 - - W 1038,7 30
19.01.2020 03:00:00 3,3 0,6 24 13 - - WNW 1038,1 24
19.01.2020 02:00:00 3,8 0,6 28 15 - - NW 1037,5 26
19.01.2020 01:00:00 2,1 -0,5 18 10 - - W 1036,6 30
19.01.2020 00:00:00 3,6 0,8 26 14 - - WNW 1035,3 10
18.01.2020 23:00:00 3,0 0,9 22 12 - - WNW 1034,4 23
18.01.2020 22:00:00 2,7 0,3 21 11 - - WNW 1033,3 27
18.01.2020 21:00:00 3,1 0,4 18 10 - - WNW 1032,8 30
18.01.2020 20:00:00 3,9 0,8 22 12 - - WNW 1031,8 25
18.01.2020 19:00:00 3,9 0,7 18 10 - - W 1030,9 29
18.01.2020 18:00:00 4,0 1,1 21 11 - - W 1029,7 29
18.01.2020 17:00:00 4,9 1,1 21 11 - - W 1028,8 28
18.01.2020 16:00:00 5,8 1,7 21 11 - - W 1028,0 30
18.01.2020 15:00:00 6,8 1,7 24 13 - - W 1027,0 27
18.01.2020 14:00:00 6,9 1,7 24 13 - - W 1026,3 30
18.01.2020 13:00:00 6,6 1,5 26 14 - - W 1026,0 30
18.01.2020 12:00:00 6,0 1,8 22 12 - - W 1025,3 30
18.01.2020 11:00:00 5,2 1,7 22 12 - - W 1024,9 30
18.01.2020 10:00:00 3,7 1,6 18 10 - - W 1023,9 21
18.01.2020 09:00:00 3,1 1,1 18 10 - - W 1023,1 23
18.01.2020 08:00:00 3,0 0,8 18 10 - - W 1021,9 26
18.01.2020 07:00:00 3,0 0,8 16 9 - - W 1020,9 20
18.01.2020 06:00:00 2,6 0,9 13 7 - - WSW 1019,9 22
18.01.2020 05:00:00 3,0 0,9 15 8 - - WSW 1019,1 20
18.01.2020 04:00:00 3,6 1,3 18 10 - - W 1018,6 26
18.01.2020 03:00:00 3,8 1,7 21 11 - - W 1018,0 21
18.01.2020 02:00:00 4,4 2,1 18 10 - - WSW 1017,2 27
18.01.2020 01:00:00 4,5 2,1 22 12 - - WSW 1016,4 23
18.01.2020 00:00:00 4,0 1,9 21 11 - - WSW 1015,5 10
17.01.2020 23:00:00 4,0 1,8 26 14 - - WSW 1015,1 26
17.01.2020 22:00:00 4,0 1,5 31 17 - - SW 1014,0 28
17.01.2020 21:00:00 4,0 1,9 26 14 - - SW 1013,7 25
17.01.2020 20:00:00 4,3 2,2 26 14 - - SW 1013,2 23
17.01.2020 19:00:00 4,8 2,3 28 15 - - SW 1012,7 30
17.01.2020 18:00:00 5,1 2,5 26 14 - - SW 1011,9 40
17.01.2020 17:00:00 5,3 2,8 22 12 - - SW 1011,1 29
17.01.2020 16:00:00 5,1 1,9 24 13 46 25 W 1010,0 40
17.01.2020 15:00:00 4,9 2,7 37 20 59 32 WNW 1008,8 35
17.01.2020 14:00:00 5,4 3,6 37 20 54 29 W 1007,0 30
17.01.2020 13:00:00 8,7 5,4 26 14 - - SSW 1006,0 40
17.01.2020 12:00:00 9,4 6,3 31 17 - - SSW 1005,8 30
17.01.2020 11:00:00 9,2 7,0 29 16 - - SSW 1005,7 40
17.01.2020 10:00:00 8,8 7,7 18 10 - - S 1005,8 10
17.01.2020 09:00:00 8,7 7,9 16 9 - - S 1005,8 20
17.01.2020 08:00:00 8,7 8,1 18 10 - - S 1005,8 12
17.01.2020 07:00:00 8,0 7,3 13 7 - - SSE 1005,8 11
17.01.2020 06:00:00 8,2 7,4 13 7 - - SSE 1006,3 13
17.01.2020 05:00:00 8,6 7,7 15 8 - - SSE 1006,3 13
17.01.2020 04:00:00 8,6 7,6 13 7 - - S 1006,6 17
17.01.2020 03:00:00 9,0 7,9 16 9 - - S 1006,5 19
17.01.2020 02:00:00 9,6 8,4 18 10 - - S 1007,0 26
17.01.2020 01:00:00 10,0 8,6 18 10 - - S 1006,8 22
17.01.2020 00:00:00 10,3 8,7 21 11 - - S 1006,6 10
16.01.2020 23:00:00 10,3 8,7 24 13 50 27 S 1006,1 20
16.01.2020 22:00:00 10,9 8,8 34 18 57 31 S 1005,8 28
16.01.2020 21:00:00 11,2 8,1 34 18 65 35 S 1005,5 30
16.01.2020 20:00:00 10,7 7,4 35 19 61 33 S 1005,0 29
16.01.2020 19:00:00 10,1 7,1 37 20 65 35 S 1005,0 24
16.01.2020 18:00:00 9,9 7,1 39 21 70 38 SSE 1005,2 25
16.01.2020 17:00:00 9,8 6,9 46 25 67 36 SSE 1005,8 24
16.01.2020 16:00:00 9,1 6,5 44 24 63 34 SSE 1006,7 22
16.01.2020 15:00:00 9,0 6,3 37 20 61 33 SSE 1007,9 10
16.01.2020 14:00:00 8,5 5,8 35 19 59 32 SSE 1009,7 24
16.01.2020 13:00:00 8,2 5,9 35 19 55 30 SSE 1010,6 10
16.01.2020 12:00:00 7,9 5,6 35 19 54 29 SSE 1012,7 25
16.01.2020 11:00:00 7,6 5,6 29 16 50 27 S 1014,3 19
16.01.2020 10:00:00 6,5 5,1 22 12 - - SSE 1015,2 21
16.01.2020 09:00:00 5,9 4,7 24 13 - - SSE 1015,2 20
16.01.2020 08:00:00 5,3 4,5 24 13 - - SSE 1015,7 16
16.01.2020 07:00:00 5,0 4,2 26 14 - - S 1015,9 16
16.01.2020 06:00:00 4,2 3,2 16 9 - - SSE 1016,4 15
16.01.2020 05:00:00 4,4 3,3 22 12 - - S 1016,6 21
16.01.2020 04:00:00 4,5 3,0 21 11 - - S 1016,7 25
16.01.2020 03:00:00 4,9 2,8 24 13 - - S 1016,2 24
16.01.2020 02:00:00 5,2 2,9 29 16 - - S 1015,3 21
16.01.2020 01:00:00 5,1 2,7 31 17 - - S 1014,7 30
16.01.2020 00:00:00 4,6 2,9 18 10 - - S 1014,6 10
15.01.2020 23:00:00 5,9 3,2 24 13 - - S 1013,7 21
15.01.2020 22:00:00 5,7 3,0 29 16 48 26 S 1012,7 22
15.01.2020 21:00:00 6,2 2,9 34 18 - - SSW 1011,4 26
15.01.2020 20:00:00 5,9 2,9 29 16 - - S 1010,7 29
15.01.2020 19:00:00 6,2 2,6 24 13 - - S 1009,9 27
15.01.2020 18:00:00 6,5 2,9 24 13 - - SSW 1008,5 26
15.01.2020 17:00:00 7,4 2,3 31 17 - - SSW 1007,2 29
15.01.2020 16:00:00 7,8 2,9 24 13 - - SSW 1006,0 10
15.01.2020 15:00:00 8,5 3,1 31 17 48 26 SW 1004,5 10
15.01.2020 14:00:00 8,7 4,2 37 20 54 29 SSW 1003,1 24
15.01.2020 13:00:00 8,4 4,1 41 22 54 29 SSW 1002,3 10
15.01.2020 12:00:00 7,5 4,0 34 18 46 25 SSW 1002,0 30
15.01.2020 11:00:00 7,1 4,4 28 15 - - SSW 1001,1 27
15.01.2020 10:00:00 7,0 4,4 28 15 - - SSW 1000,4 29
15.01.2020 09:00:00 6,6 4,1 28 15 - - S 999,2 10
15.01.2020 08:00:00 6,8 4,0 28 15 - - SSW 998,7 27
15.01.2020 07:00:00 6,5 4,1 24 13 - - S 998,3 22
15.01.2020 06:00:00 6,9 4,4 21 11 - - S 997,4 35
15.01.2020 05:00:00 6,9 4,7 16 9 - - S 996,4 65

tt = temperature
td = dewpoint
ff = wind speed
fx = gusts
dd = wind direction
ppp = reduced air pressure
vv = visibility

Next stations